EWG56R EDDS-EDDH

Flight info

Callsign EWG56R
Flight time 1h 3m
Altitude 37000
Route OKIBA4B OKIBA N851 RIMKI Z99 LOHRE DCT MASEK DCT ELNAT/N0439F360 P605 NOLGO NOLGO6A
Aircraft A320/M-SDE3FGHIRWY/LB1

Departure

Time 2026-05-07 18:41
Airport Stuttgart Airport (EDDS)

Arrival

Time 2026-05-07 19:44
Airport Hamburg Helmut Schmidt Airport (EDDH)
Time Latitude Longitude Altitude Speed Heading
2026-05-07 18:22 48.68944 9.19645 1303 ft 0 kts 344°
2026-05-07 18:30 48.68926 9.19653 1301 ft 4 kts 344°
2026-05-07 18:31 48.68900 9.19664 1299 ft 4 kts 343°
2026-05-07 18:31 48.68875 9.19674 1298 ft 4 kts 360°
2026-05-07 18:31 48.68861 9.19669 1297 ft 1 kts 75°
2026-05-07 18:31 48.68861 9.19668 1297 ft 1 kts 75°
2026-05-07 18:32 48.68861 9.19669 1297 ft 0 kts 75°
2026-05-07 18:33 48.68870 9.19722 1295 ft 13 kts 75°
2026-05-07 18:33 48.68847 9.19865 1289 ft 18 kts 131°
2026-05-07 18:34 48.68831 9.20032 1286 ft 14 kts 71°
2026-05-07 18:34 48.68864 9.20183 1283 ft 17 kts 75°
2026-05-07 18:34 48.68903 9.20371 1279 ft 20 kts 71°
2026-05-07 18:34 48.68945 9.20598 1272 ft 25 kts 73°
2026-05-07 18:35 48.68995 9.20861 1272 ft 27 kts 75°
2026-05-07 18:35 48.69049 9.21141 1266 ft 23 kts 74°
2026-05-07 18:35 48.69095 9.21389 1259 ft 26 kts 74°
2026-05-07 18:35 48.69146 9.21660 1252 ft 28 kts 74°
2026-05-07 18:36 48.69206 9.21962 1243 ft 32 kts 72°
2026-05-07 18:36 48.69267 9.22284 1232 ft 31 kts 72°
2026-05-07 18:36 48.69319 9.22565 1227 ft 23 kts 73°
2026-05-07 18:36 48.69363 9.22805 1226 ft 24 kts 73°
2026-05-07 18:37 48.69411 9.23063 1221 ft 26 kts 73°
2026-05-07 18:37 48.69469 9.23343 1212 ft 26 kts 76°
2026-05-07 18:37 48.69516 9.23614 1207 ft 22 kts 75°
2026-05-07 18:37 48.69562 9.23846 1202 ft 24 kts 74°
2026-05-07 18:38 48.69608 9.24092 1196 ft 20 kts 80°
2026-05-07 18:38 48.69562 9.24262 1192 ft 15 kts 136°
2026-05-07 18:38 48.69461 9.24321 1188 ft 16 kts 187°
2026-05-07 18:38 48.69380 9.24258 1190 ft 10 kts 242°
2026-05-07 18:39 48.69375 9.24239 1190 ft 0 kts 247°
2026-05-07 18:40 48.69370 9.24213 1191 ft 19 kts 255°
2026-05-07 18:40 48.69263 9.23654 1203 ft 91 kts 253°
2026-05-07 18:40 48.69030 9.22438 1232 ft 148 kts 254°
2026-05-07 18:40 48.68732 9.20776 1476 ft 174 kts 256°
2026-05-07 18:41 48.68410 9.19017 2218 ft 174 kts 256°
2026-05-07 18:41 48.68060 9.17220 2832 ft 187 kts 255°
2026-05-07 18:41 48.67666 9.15227 3210 ft 209 kts 255°
2026-05-07 18:41 48.67219 9.13011 3539 ft 232 kts 254°
2026-05-07 18:42 48.67028 9.10563 4165 ft 238 kts 283°
2026-05-07 18:42 48.67757 9.08355 4988 ft 240 kts 307°
2026-05-07 18:42 48.68954 9.06597 5798 ft 244 kts 331°
2026-05-07 18:42 48.70617 9.05708 6314 ft 264 kts 343°
2026-05-07 18:43 48.72411 9.04937 7018 ft 271 kts 341°
2026-05-07 18:43 48.74252 9.04251 7795 ft 277 kts 353°
2026-05-07 18:43 48.76193 9.04498 8571 ft 285 kts 15°
2026-05-07 18:43 48.78071 9.05536 9368 ft 289 kts 19°
2026-05-07 18:44 48.79958 9.06647 10148 ft 294 kts 20°
2026-05-07 18:44 48.81914 9.07811 10516 ft 313 kts 20°
2026-05-07 18:44 48.84011 9.09066 10814 ft 332 kts 20°
2026-05-07 18:44 48.86244 9.10048 11426 ft 337 kts
2026-05-07 18:45 48.88571 9.10586 12148 ft 341 kts
2026-05-07 18:45 48.90928 9.11125 12888 ft 344 kts
2026-05-07 18:45 48.93304 9.11669 13622 ft 347 kts
2026-05-07 18:45 48.95694 9.12220 14289 ft 350 kts
2026-05-07 18:46 48.98119 9.12782 14898 ft 354 kts
2026-05-07 18:46 49.00566 9.13347 15510 ft 358 kts
2026-05-07 18:46 49.03037 9.13918 16115 ft 361 kts
2026-05-07 18:46 49.05534 9.14497 16724 ft 365 kts
2026-05-07 18:47 49.08054 9.15082 17333 ft 368 kts
2026-05-07 18:47 49.10601 9.15673 17935 ft 372 kts
2026-05-07 18:47 49.13164 9.16265 18507 ft 375 kts
2026-05-07 18:47 49.15754 9.16865 19037 ft 378 kts
2026-05-07 18:48 49.18362 9.17468 19588 ft 380 kts
2026-05-07 18:48 49.20100 9.17871 19945 ft 382 kts
2026-05-07 18:48 49.22736 9.18486 20488 ft 384 kts
2026-05-07 18:48 49.25390 9.19107 21030 ft 387 kts
2026-05-07 18:49 49.28061 9.19732 21571 ft 390 kts
2026-05-07 18:49 49.30753 9.20363 22108 ft 392 kts
2026-05-07 18:49 49.33458 9.20998 22645 ft 395 kts
2026-05-07 18:49 49.36176 9.21632 23174 ft 397 kts
2026-05-07 18:50 49.38918 9.22271 23677 ft 400 kts
2026-05-07 18:50 49.41677 9.22917 24102 ft 402 kts
2026-05-07 18:50 49.44448 9.23567 24530 ft 404 kts
2026-05-07 18:50 49.47233 9.24220 24954 ft 406 kts
2026-05-07 18:51 49.50033 9.24879 25357 ft 408 kts
2026-05-07 18:51 49.52843 9.25541 25755 ft 410 kts
2026-05-07 18:51 49.55666 9.26207 26136 ft 411 kts
2026-05-07 18:51 49.58502 9.26877 26516 ft 413 kts
2026-05-07 18:52 49.61345 9.27550 26887 ft 415 kts
2026-05-07 18:52 49.64207 9.28227 27256 ft 417 kts
2026-05-07 18:52 49.67081 9.28911 27618 ft 419 kts
2026-05-07 18:52 49.69968 9.29603 27988 ft 421 kts
2026-05-07 18:53 49.72868 9.30296 28343 ft 423 kts
2026-05-07 18:53 49.75781 9.30994 28683 ft 425 kts
2026-05-07 18:53 49.78707 9.31691 29005 ft 426 kts
2026-05-07 18:53 49.81647 9.32389 29328 ft 428 kts
2026-05-07 18:54 49.84600 9.33091 29650 ft 430 kts
2026-05-07 18:54 49.87565 9.33799 29963 ft 432 kts
2026-05-07 18:54 49.90521 9.34506 30241 ft 434 kts
2026-05-07 18:54 49.93510 9.35223 30479 ft 436 kts
2026-05-07 18:55 49.96512 9.35945 30699 ft 437 kts
2026-05-07 18:55 49.99527 9.36668 30926 ft 439 kts
2026-05-07 18:55 50.02516 9.37387 31140 ft 441 kts
2026-05-07 18:55 50.05558 9.38122 31372 ft 443 kts
2026-05-07 18:56 50.08600 9.38859 31679 ft 442 kts
2026-05-07 18:56 50.11650 9.39598 31978 ft 442 kts
2026-05-07 18:56 50.14689 9.40331 32280 ft 442 kts
2026-05-07 18:56 50.17730 9.41065 32572 ft 442 kts
2026-05-07 18:57 50.20771 9.41801 32871 ft 442 kts
2026-05-07 18:57 50.23757 9.42530 33161 ft 442 kts
2026-05-07 18:57 50.26792 9.43273 33461 ft 441 kts
2026-05-07 18:57 50.29828 9.44015 33764 ft 441 kts
2026-05-07 18:58 50.32869 9.44757 34051 ft 441 kts
2026-05-07 18:58 50.35904 9.45499 34298 ft 441 kts
2026-05-07 18:58 50.38940 9.46242 34525 ft 442 kts
2026-05-07 18:58 50.41976 9.46986 34732 ft 442 kts
2026-05-07 18:59 50.45019 9.47729 34944 ft 443 kts
2026-05-07 18:59 50.48065 9.48472 35140 ft 443 kts
2026-05-07 18:59 50.51116 9.49217 35331 ft 444 kts
2026-05-07 18:59 50.54170 9.49969 35524 ft 444 kts
2026-05-07 19:00 50.57227 9.50725 35708 ft 445 kts
2026-05-07 19:00 50.60287 9.51482 35890 ft 445 kts
2026-05-07 19:00 50.63351 9.52239 36049 ft 446 kts
2026-05-07 19:01 50.69494 9.53756 36095 ft 447 kts
2026-05-07 19:01 50.75629 9.55283 36097 ft 444 kts
2026-05-07 19:02 50.81708 9.56796 36099 ft 442 kts
2026-05-07 19:02 50.87784 9.58315 36101 ft 442 kts
2026-05-07 19:03 50.93854 9.59840 36103 ft 442 kts
2026-05-07 19:03 50.99921 9.61360 36106 ft 442 kts
2026-05-07 19:04 51.05996 9.62875 36114 ft 442 kts
2026-05-07 19:04 51.12068 9.64406 36121 ft 442 kts
2026-05-07 19:05 51.18147 9.65955 36122 ft 442 kts
2026-05-07 19:05 51.24228 9.67503 36123 ft 442 kts
2026-05-07 19:06 51.30311 9.69045 36125 ft 443 kts
2026-05-07 19:06 51.39430 9.71344 36129 ft 442 kts
2026-05-07 19:07 51.45512 9.72899 36131 ft 443 kts
2026-05-07 19:07 51.51592 9.74467 36131 ft 442 kts
2026-05-07 19:08 51.57670 9.76041 36134 ft 442 kts
2026-05-07 19:08 51.63709 9.77616 36133 ft 442 kts
2026-05-07 19:09 51.69820 9.79203 36133 ft 442 kts
2026-05-07 19:09 51.75889 9.80760 36136 ft 442 kts
2026-05-07 19:10 51.81951 9.82330 36136 ft 442 kts
2026-05-07 19:10 51.88026 9.83919 36136 ft 442 kts
2026-05-07 19:11 51.94037 9.85492 35610 ft 438 kts
2026-05-07 19:11 51.97065 9.86289 35169 ft 432 kts
2026-05-07 19:11 51.99978 9.87057 34756 ft 427 kts
2026-05-07 19:12 52.02934 9.87833 34347 ft 422 kts
2026-05-07 19:12 52.05778 9.88577 33928 ft 417 kts
2026-05-07 19:12 52.08661 9.89336 33423 ft 413 kts
2026-05-07 19:12 52.11446 9.90071 32942 ft 409 kts
2026-05-07 19:13 52.14280 9.90820 32457 ft 405 kts
2026-05-07 19:13 52.17016 9.91542 31987 ft 402 kts
2026-05-07 19:13 52.19801 9.92276 31520 ft 398 kts
2026-05-07 19:13 52.22491 9.92987 31075 ft 395 kts
2026-05-07 19:14 52.25189 9.93702 30636 ft 392 kts
2026-05-07 19:14 52.27874 9.94416 30197 ft 389 kts
2026-05-07 19:14 52.30535 9.95130 29690 ft 386 kts
2026-05-07 19:14 52.33175 9.95838 29189 ft 384 kts
2026-05-07 19:15 52.35801 9.96538 28700 ft 381 kts
2026-05-07 19:15 52.38413 9.97233 28221 ft 379 kts
2026-05-07 19:15 52.41006 9.97925 27748 ft 376 kts
2026-05-07 19:15 52.43583 9.98614 27284 ft 374 kts
2026-05-07 19:16 52.46139 9.99302 26825 ft 372 kts
2026-05-07 19:16 52.48688 9.99991 26371 ft 370 kts
2026-05-07 19:16 52.51219 10.00674 25919 ft 368 kts
2026-05-07 19:16 52.53737 10.01349 25472 ft 366 kts
2026-05-07 19:17 52.56225 10.02161 25035 ft 364 kts 14°
2026-05-07 19:17 52.58663 10.03255 24593 ft 362 kts 14°
2026-05-07 19:17 52.61089 10.04345 24158 ft 360 kts 14°
2026-05-07 19:17 52.63503 10.05427 23727 ft 359 kts 14°
2026-05-07 19:18 52.65901 10.06499 23242 ft 357 kts 14°
2026-05-07 19:18 52.68296 10.07568 22775 ft 355 kts 14°
2026-05-07 19:18 52.70664 10.08622 22338 ft 352 kts 14°
2026-05-07 19:18 52.73022 10.09679 21873 ft 351 kts 14°
2026-05-07 19:19 52.75395 10.10746 21212 ft 356 kts 14°
2026-05-07 19:19 52.77820 10.11653 20565 ft 359 kts
2026-05-07 19:19 52.80312 10.11872 19931 ft 357 kts 360°
2026-05-07 19:19 52.82769 10.11947 19317 ft 350 kts 360°
2026-05-07 19:20 52.85181 10.12027 18717 ft 343 kts
2026-05-07 19:20 52.87551 10.12104 18080 ft 338 kts
2026-05-07 19:20 52.89885 10.12179 17397 ft 333 kts
2026-05-07 19:20 52.92187 10.12255 16741 ft 329 kts
2026-05-07 19:21 52.94459 10.12330 16096 ft 325 kts
2026-05-07 19:21 52.96704 10.12402 15462 ft 321 kts
2026-05-07 19:21 52.98927 10.12472 14841 ft 318 kts
2026-05-07 19:21 53.01128 10.12547 14234 ft 315 kts
2026-05-07 19:22 53.03308 10.12624 13604 ft 312 kts
2026-05-07 19:22 53.05468 10.12702 12928 ft 309 kts
2026-05-07 19:22 53.07577 10.12778 12273 ft 306 kts
2026-05-07 19:22 53.09694 10.12850 11640 ft 303 kts
2026-05-07 19:23 53.11789 10.12918 11012 ft 300 kts
2026-05-07 19:23 53.13863 10.12984 10402 ft 296 kts
2026-05-07 19:23 53.15891 10.13048 10163 ft 290 kts
2026-05-07 19:23 53.17900 10.13110 10113 ft 288 kts
2026-05-07 19:24 53.19909 10.13175 10116 ft 289 kts
2026-05-07 19:24 53.21920 10.13242 10116 ft 288 kts
2026-05-07 19:24 53.23925 10.13309 10118 ft 288 kts
2026-05-07 19:24 53.25930 10.13377 10123 ft 288 kts
2026-05-07 19:25 53.27934 10.13445 10125 ft 288 kts
2026-05-07 19:25 53.29935 10.13514 10122 ft 288 kts
2026-05-07 19:25 53.31938 10.13583 10128 ft 288 kts
2026-05-07 19:25 53.33939 10.13648 10129 ft 288 kts
2026-05-07 19:26 53.35941 10.13712 10129 ft 288 kts
2026-05-07 19:26 53.37935 10.13485 10129 ft 288 kts 348°
2026-05-07 19:26 53.39825 10.12389 10128 ft 289 kts 333°
2026-05-07 19:26 53.41476 10.10487 10131 ft 289 kts 318°
2026-05-07 19:27 53.42921 10.08136 10129 ft 290 kts 315°
2026-05-07 19:27 53.44331 10.05720 10133 ft 290 kts 314°
2026-05-07 19:27 53.45739 10.03296 10137 ft 290 kts 314°
2026-05-07 19:27 53.47144 10.00873 10135 ft 290 kts 314°
2026-05-07 19:28 53.48550 9.98445 10136 ft 290 kts 314°
2026-05-07 19:28 53.49955 9.96017 10139 ft 290 kts 314°
2026-05-07 19:28 53.51360 9.93587 10133 ft 290 kts 314°
2026-05-07 19:28 53.52764 9.91157 10138 ft 290 kts 314°
2026-05-07 19:29 53.54167 9.88721 10136 ft 290 kts 314°
2026-05-07 19:29 53.55570 9.86284 10125 ft 290 kts 314°
2026-05-07 19:29 53.56962 9.83860 9824 ft 284 kts 314°
2026-05-07 19:29 53.58284 9.81548 9682 ft 264 kts 314°
2026-05-07 19:30 53.59526 9.79368 9316 ft 254 kts 314°
2026-05-07 19:30 53.60737 9.77234 8824 ft 250 kts 314°
2026-05-07 19:30 53.61868 9.75031 8311 ft 248 kts 300°
2026-05-07 19:30 53.62328 9.72302 7898 ft 243 kts 269°
2026-05-07 19:31 53.61884 9.69599 7485 ft 243 kts 237°
2026-05-07 19:31 53.60809 9.67391 7064 ft 246 kts 225°
2026-05-07 19:31 53.59611 9.65323 6719 ft 247 kts 224°
2026-05-07 19:31 53.58402 9.63286 6401 ft 246 kts 224°
2026-05-07 19:32 53.57200 9.61265 6073 ft 244 kts 224°
2026-05-07 19:32 53.56006 9.59244 5756 ft 243 kts 224°
2026-05-07 19:32 53.54821 9.57231 5444 ft 241 kts 224°
2026-05-07 19:32 53.53647 9.55225 5141 ft 240 kts 224°
2026-05-07 19:33 53.52878 9.53904 4935 ft 239 kts 224°
2026-05-07 19:33 53.51720 9.51911 4604 ft 238 kts 224°
2026-05-07 19:33 53.50580 9.49943 4405 ft 231 kts 224°
2026-05-07 19:33 53.49484 9.48047 4272 ft 222 kts 224°
2026-05-07 19:34 53.48427 9.46212 4102 ft 216 kts 224°
2026-05-07 19:34 53.47384 9.44398 4006 ft 216 kts 224°
2026-05-07 19:34 53.46343 9.42590 3991 ft 216 kts 224°
2026-05-07 19:34 53.45299 9.40781 3992 ft 216 kts 224°
2026-05-07 19:35 53.44116 9.39292 3991 ft 212 kts 197°
2026-05-07 19:35 53.42688 9.39156 3994 ft 206 kts 160°
2026-05-07 19:35 53.41454 9.40303 3995 ft 203 kts 130°
2026-05-07 19:35 53.40840 9.42354 3838 ft 198 kts 96°
2026-05-07 19:36 53.41054 9.44604 3524 ft 198 kts 69°
2026-05-07 19:36 53.41623 9.46716 3204 ft 199 kts 65°
2026-05-07 19:36 53.42242 9.48787 3019 ft 198 kts 64°
2026-05-07 19:36 53.42868 9.50847 2992 ft 198 kts 64°
2026-05-07 19:37 53.43497 9.52911 2997 ft 199 kts 64°
2026-05-07 19:37 53.44127 9.54978 3002 ft 199 kts 64°
2026-05-07 19:37 53.44757 9.57045 3003 ft 199 kts 64°
2026-05-07 19:37 53.45385 9.59096 3001 ft 192 kts 64°
2026-05-07 19:38 53.45968 9.61001 3021 ft 177 kts 64°
2026-05-07 19:38 53.46518 9.62792 3029 ft 170 kts 64°
2026-05-07 19:38 53.47060 9.64546 3016 ft 168 kts 64°
2026-05-07 19:38 53.47598 9.66293 3010 ft 168 kts 64°
2026-05-07 19:39 53.48133 9.68031 3010 ft 168 kts 64°
2026-05-07 19:39 53.48725 9.69721 3011 ft 168 kts 58°
2026-05-07 19:39 53.49416 9.71311 3011 ft 169 kts 54°
2026-05-07 19:39 53.50151 9.72856 3012 ft 169 kts 53°
2026-05-07 19:40 53.50900 9.74383 3013 ft 169 kts 52°
2026-05-07 19:40 53.51654 9.75905 3008 ft 169 kts 52°
2026-05-07 19:40 53.52412 9.77426 2957 ft 170 kts 52°
2026-05-07 19:40 53.53160 9.78927 2792 ft 169 kts 52°
2026-05-07 19:41 53.53921 9.80454 2580 ft 168 kts 53°
2026-05-07 19:41 53.54656 9.81930 2360 ft 166 kts 52°
2026-05-07 19:41 53.55396 9.83417 2135 ft 165 kts 53°
2026-05-07 19:41 53.56130 9.84894 1910 ft 164 kts 52°
2026-05-07 19:42 53.56830 9.86299 1685 ft 150 kts 53°
2026-05-07 19:42 53.57468 9.87583 1490 ft 138 kts 52°
2026-05-07 19:42 53.58071 9.88797 1309 ft 134 kts 52°
2026-05-07 19:42 53.58659 9.89983 1128 ft 132 kts 52°
2026-05-07 19:43 53.59246 9.91165 945 ft 131 kts 52°
2026-05-07 19:43 53.59819 9.92335 757 ft 132 kts 51°
2026-05-07 19:43 53.60407 9.93529 582 ft 133 kts 50°
2026-05-07 19:43 53.61004 9.94705 403 ft 133 kts 50°
2026-05-07 19:44 53.61596 9.95897 217 ft 132 kts 51°
2026-05-07 19:44 53.62173 9.97075 53 ft 130 kts 50°
2026-05-07 19:44 53.62672 9.98087 47 ft 82 kts 50°
2026-05-07 19:44 53.62924 9.98597 47 ft 46 kts 50°
2026-05-07 19:45 53.63079 9.98981 49 ft 37 kts 74°
2026-05-07 19:45 53.63088 9.99199 48 ft 0 kts 92°
2026-05-07 19:45 53.63087 9.99222 48 ft 9 kts 92°
2026-05-07 19:45 53.63089 9.99354 48 ft 0 kts 81°
2026-05-07 19:46 53.63092 9.99375 48 ft 10 kts 73°
2026-05-07 19:46 53.63160 9.99543 48 ft 15 kts 54°
2026-05-07 19:47 53.63204 9.99636 48 ft 0 kts 50°
2026-05-07 19:47 53.63204 9.99637 48 ft 1 kts 50°
2026-05-07 19:48 53.63217 9.99744 48 ft 19 kts 113°
2026-05-07 19:48 53.63102 9.99867 47 ft 21 kts 153°
2026-05-07 19:48 53.62971 9.99982 46 ft 17 kts 147°
2026-05-07 19:48 53.62920 10.00107 45 ft 4 kts 59°
2026-05-07 19:49 53.62916 10.00137 45 ft 4 kts 106°
2026-05-07 19:49 53.62897 10.00199 45 ft 4 kts 122°
2026-05-07 19:49 53.62893 10.00211 45 ft 2 kts 122°
2026-05-07 19:49 53.62892 10.00214 45 ft 0 kts 122°